Window Rock, AZ

5:55 AM MST on December 08, 2016 (GMT -0700)
Window Rock

Weather History for KRQE - February, 2013

Change the Weather History Date:

Tuesday, February 26, 2013

  Actual Average Record
Temperature  
Mean Temperature 24 °F -  
Max Temperature 35 °F 50 °F 71 °F (1989)
Min Temperature 14 °F 21 °F 0 °F (1977)
Degree Days  
Heating Degree Days 40    
Moisture  
Dew Point 0 °F    
Average Humidity 38    
Maximum Humidity 74    
Minimum Humidity 13    
Precipitation  
Precipitation 0.00 in - - ()
Sea Level Pressure  
Sea Level Pressure 29.97 in    
Wind  
Wind Speed 7 mph (NNW)    
Max Wind Speed 21 mph    
Max Gust Speed 29 mph    
Visibility 10 miles    
Events      
Averages and records for this station are not official NWS values.
T = Trace of Precipitation, MM = Missing Value Source: NWS Daily Summary

Daily Weather History Graph

Daily Weather History Graph

Search for Another Location

Airport or City:

Trip Planner

Search our weather history database for the weather conditions in past years. The results will help you decide how hot, cold, wet, or windy it might be!

Date:

Astronomy

Feb. 26, 2013 Rise Set
Actual Time 6:49 AM MST 6:09 PM MST
Civil Twilight 6:23 AM MST 6:34 PM MST
Nautical Twilight 5:54 AM MST 7:04 PM MST
Astronomical Twilight 5:24 AM MST 7:33 PM MST
Moon 7:24 PM MST (2/26) 6:57 AM MST (2/26)
Length of Visible Light 12h 10m
Length of Day
11h 19m
Full, 99% of the Moon is Illuminated
Feb 26
Full
Mar 4
Last Quarter
Mar 11
New
Mar 19
First Quarter
Mar 27
Full

Hourly Weather History & Observations

Time (MST) Temp. Windchill Dew Point Humidity Pressure Visibility Wind Dir Wind Speed Gust Speed Precip Events Conditions
12:53 AM 19.9 °F 12.1 °F 6.1 °F 55% 29.90 in 10.0 mi East 5.8 mph - N/A   Clear
1:53 AM 14.0 °F - 7.0 °F 74% 29.91 in 10.0 mi Calm Calm - N/A   Clear
2:53 AM 23.0 °F - 7.0 °F 50% 29.86 in 10.0 mi Calm Calm - N/A   Clear
3:53 AM 21.0 °F 16.2 °F 7.0 °F 55% 29.86 in 10.0 mi SSW 3.5 mph - N/A   Clear
4:53 AM 21.0 °F - 6.1 °F 53% 29.86 in 10.0 mi Calm Calm - N/A   Clear
5:53 AM 21.9 °F 15.7 °F 5.0 °F 48% 29.85 in 10.0 mi South 4.6 mph - N/A   Clear
6:53 AM 16.0 °F 10.4 °F 6.1 °F 65% 29.91 in 10.0 mi ENE 3.5 mph - N/A   Clear
7:53 AM 26.1 °F - 8.1 °F 47% 29.89 in 10.0 mi Calm Calm - N/A   Clear
8:53 AM 30.9 °F 19.8 °F 6.1 °F 35% 29.90 in 10.0 mi WNW 16.1 mph 26.5 mph N/A   Clear
9:53 AM 33.1 °F 22.2 °F 6.1 °F 32% 29.92 in 10.0 mi NW 17.3 mph 25.3 mph N/A   Clear
10:53 AM 34.0 °F 22.7 °F 1.9 °F 26% 29.93 in 10.0 mi NNW 19.6 mph 26.5 mph N/A   Clear
11:53 AM 34.0 °F 24.2 °F -0.9 °F 23% 29.94 in 10.0 mi NNW 15.0 mph 24.2 mph N/A   Mostly Cloudy
12:53 PM 33.1 °F 21.9 °F -4.0 °F 20% 29.94 in 10.0 mi NNW 18.4 mph 26.5 mph N/A   Mostly Cloudy
1:53 PM 35.1 °F 24.1 °F -5.1 °F 18% 29.97 in 10.0 mi NW 19.6 mph 28.8 mph N/A   Mostly Cloudy
2:53 PM 33.1 °F 23.4 °F -8.0 °F 17% 29.96 in 10.0 mi NW 13.8 mph 21.9 mph N/A   Mostly Cloudy
3:53 PM 33.1 °F 22.2 °F -8.0 °F 17% 29.97 in 10.0 mi NNW 17.3 mph 26.5 mph N/A   Clear
4:53 PM 32.0 °F 19.8 °F -14.1 °F 13% 29.98 in 10.0 mi WNW 20.7 mph 26.5 mph N/A   Clear
5:53 PM 28.9 °F 16.9 °F -9.9 °F 18% 30.02 in 10.0 mi NNW 17.3 mph 25.3 mph N/A   Clear
6:53 PM 26.1 °F 17.6 °F -6.0 °F 25% 30.09 in 10.0 mi NNW 8.1 mph - N/A   Clear
7:53 PM 23.0 °F 15.8 °F -2.9 °F 32% 30.08 in 10.0 mi NNW 5.8 mph - N/A   Clear
8:53 PM 21.9 °F - -0.9 °F 37% 30.09 in 10.0 mi Calm Calm - N/A   Clear
9:53 PM 17.1 °F - -0.0 °F 47% 30.13 in 10.0 mi Calm Calm - N/A   Clear
10:53 PM 16.0 °F - 1.9 °F 54% 30.14 in 10.0 mi Calm Calm - N/A   Clear
11:53 PM 18.0 °F 11.1 °F 3.0 °F 52% 30.12 in 10.0 mi North 4.6 mph - N/A   Clear